EHI
6 9 10 5 2 3 5 6 7 8 9 6 4 2 1 0 0 0 0 0 1 2 3 3 2 2 3 3 3 3 4 5 4 2 0 0 0 0 0 0 0 0 0
4 6 6 3 1 2 3 4 5 6 7 6 4 3 2 1 0 0 0 0 0 1 3 3 2 2 3 4 4 4 4 5 5 3 1 0 0 0 0 0 0 0 0
3 3 3 1 0 1 1 1 2 3 4 3 3 2 2 1 0 1 1 0 0 1 3 4 2 2 4 5 5 5 4 5 5 3 1 0 0 0 0 0 0 0 0
2 2 1 0 0 0 0 0 0 1 1 1 1 1 1 0 0 1 1 0 0 2 4 3 1 2 4 6 6 5 4 4 4 3 2 1 0 0 0 0 0 0 0
1 1 1 0 0 0 0 0 0 0 0 0 0 0 0 0 0 0 0 0 0 2 2 1 1 2 3 4 5 6 4 3 2 2 1 1 0 0 0 0 0 0 0
0 0 0 0 0 0 0 0 0 0 0 0 0 0 0 0 0 0 0 0 0 1 1 0 1 1 2 3 4 6 6 4 3 1 0 0 0 0 0 0 0 0 0
0 0 0 0 0 0 0 0 0 0 0 0 0 0 0 0 0 0 0 0 0 0 0 0 0 1 3 3 4 6 8 7 5 2 0 0 0 0 0 0 0 0 0
0 0 0 0 0 0 0 0 0 0 0 0 0 0 0 0 0 0 0 0 0 0 0 1 1 1 3 4 3 5 7 7 6 3 2 1 1 0 0 0 0 0 0
0 0 0 0 0 0 0 0 0 0 0 0 0 0 0 0 0 0 0 0 0 0 1 2 2 2 2 3 2 2 3 4 5 4 3 2 1 0 0 0 0 0 0
0 0 0 0 0 0 0 0 0 0 0 0 0 0 0 0 0 0 0 0 0 0 1 2 2 1 1 2 1 0 0 1 3 4 3 2 1 0 0 0 0 0 0
0 0 0 0 0 0 0 0 0 0 0 0 0 0 0 0 0 0 0 0 0 0 0 1 1 0 0 0 0 0 0 0 1 2 3 3 2 1 0 0 0 0 0
0 0 0 0 0 0 0 0 0 0 0 0 0 0 0 0 0 0 0 0 0 0 0 0 0 0 0 0 0 0 0 0 0 1 1 2 2 1 0 0 0 0 0
0 0 0 0 0 0 0 0 0 0 0 0 0 0 0 0 0 0 0 0 0 0 0 0 0 0 0 0 0 0 0 0 0 0 0 0 1 1 0 0 0 0 0
0 0 0 0 0 0 0 0 0 0 0 0 0 0 0 0 0 0 0 0 0 0 0 0 0 0 0 0 0 0 0 0 0 0 0 0 0 0 0 0 0 0 0
0 0 0 0 0 0 0 0 0 0 0 0 0 0 0 0 0 0 0 0 0 0 0 0 0 0 0 0 0 0 0 0 0 0 0 0 0 0 0 0 0 0 0
0 0 0 0 0 0 0 0 0 0 0 0 0 0 0 0 0 0 0 0 0 0 0 0 0 0 0 0 0 0 0 0 0 0 0 0 0 0 0 0 0 0 0
0 0 0 0 0 0 0 0 0 0 0 0 0 0 0 0 0 0 0 0 0 0 0 0 0 0 0 0 0 0 0 0 0 0 0 0 0 0 0 0 0 0 0
0 0 0 0 0 0 0 0 0 0 0 0 0 0 0 0 0 0 0 0 0 0 0 0 0 0 0 0 0 0 0 0 0 0 0 0 0 0 0 0 0 0 0
0 0 0 0 0 0 0 0 0 0 0 0 0 0 0 0 0 0 0 0 0 0 0 0 0 0 0 0 0 0 0 0 0 0 0 0 0 0 0 0 0 0 0
0 0 0 0 0 0 0 0 0 0 0 0 0 0 0 0 0 0 0 0 0 0 0 0 0 0 0 0 0 0 0 0 0 0 0 0 0 0 0 0 0 0 0
0 0 0 0 0 0 0 0 0 0 0 0 0 0 0 0 0 0 0 0 0 0 0 0 0 0 0 0 0 0 0 0 0 0 0 0 0 0 0 0 0 0 0
0 0 0 0 0 0 0 0 0 0 0 0 0 0 0 0 0 0 0 0 0 0 0 0 0 0 0 0 0 0 0 0 0 0 0 0 0 0 0 0 0 0 0
0 0 0 0 0 0 0 0 0 0 0 0 0 0 0 0 0 0 0 0 0 0 0 0 0 0 0 0 0 0 0 0 0 0 0 0 0 0 0 0 0 0 0
0 0 0 0 0 0 0 0 0 0 0 0 0 0 0 0 0 0 0 0 0 0 0 0 0 0 0 0 0 0 0 0 0 0 0 0 0 0 0 0 0 0 0
0 0 0 0 0 0 0 0 0 0 0 0 0 0 0 0 0 0 0 0 0 0 0 0 0 0 0 0 0 0 0 0 0 0 0 0 0 0 0 0 0 0 0
0 0 0 0 0 0 0 0 0 0 0 0 0 0 0 0 0 0 0 0 0 0 0 0 0 0 0 0 0 0 0 0 0 0 0 0 0 0 0 0 0 0 0
Wind_Speed
3 2 2 3 3 3 3 4 4 6 6 7 8 9 9 9 9 8 6 14 15 15 17 18 19 20 20 20 19 19 19 19 17 15 15 15 15 14 14 13 12 11 11
2 2 3 3 2 3 3 3 4 5 5 5 7 8 9 8 9 9 7 9 15 15 16 17 19 21 21 21 21 20 19 19 17 17 16 15 14 14 14 14 13 12 11
2 2 2 2 2 2 3 3 3 3 4 5 7 8 7 8 8 9 8 7 8 13 15 16 17 19 21 22 22 21 20 18 17 18 17 16 15 15 15 14 14 13 12
1 1 1 2 2 2 2 2 2 2 3 4 5 6 6 6 8 9 8 7 7 7 11 16 18 18 20 22 22 22 21 19 18 18 18 18 17 16 15 15 15 14 13
0 1 1 2 1 1 1 2 2 2 3 4 5 5 5 5 6 8 9 10 9 8 7 11 16 18 21 22 22 22 21 20 20 20 20 20 19 17 16 16 15 15 14
1 1 1 2 1 1 1 1 2 2 3 4 5 5 4 5 5 6 9 8 8 10 10 10 8 11 19 20 20 21 21 21 21 21 21 21 20 19 18 17 16 16 16
1 1 1 1 1 1 2 2 2 3 2 2 3 3 4 6 7 7 7 7 9 10 9 10 8 7 8 16 18 19 20 22 21 22 22 21 21 20 19 19 18 17 17
2 2 2 2 2 2 2 2 2 1 2 1 2 2 3 3 3 6 6 7 8 7 9 10 9 9 7 6 10 19 20 21 21 22 22 21 21 20 20 20 19 18 17
2 2 2 2 2 2 2 3 2 3 2 2 2 2 2 3 3 2 4 6 6 6 8 7 10 10 10 8 8 15 20 20 21 22 22 22 21 20 20 20 19 19 18
3 3 3 3 3 2 3 4 3 3 3 2 2 3 3 2 2 3 2 3 5 7 7 8 8 9 10 8 10 13 17 18 20 21 22 22 21 21 20 20 21 20 19
3 4 3 2 3 3 3 4 3 3 3 3 2 2 2 2 3 3 4 3 3 4 5 6 6 7 9 9 9 12 16 17 18 20 20 21 21 21 21 21 22 21 20
3 4 3 3 3 3 4 4 3 4 4 4 3 2 2 2 2 2 3 3 4 3 4 5 5 6 7 9 12 15 16 16 17 17 18 19 20 20 21 21 21 21 21
3 5 4 3 3 4 4 4 4 4 4 4 4 3 3 3 2 2 3 3 3 3 3 3 5 5 6 6 8 15 15 15 16 16 17 17 17 18 18 19 19 19 19
4 5 5 5 5 5 5 4 4 5 4 5 5 4 3 4 3 3 2 2 3 3 2 3 2 4 5 5 8 13 10 14 15 15 16 16 15 15 15 15 15 15 15
5 5 5 5 5 5 5 4 4 5 4 5 5 5 4 4 3 3 3 3 3 3 3 2 2 2 3 3 6 7 8 12 14 14 14 14 14 14 14 14 13 13 12
5 6 6 6 6 5 5 4 5 5 5 5 4 5 5 4 4 3 3 3 4 3 3 2 2 2 2 3 5 6 7 10 13 13 13 13 13 13 13 12 12 11 11
6 6 6 6 6 6 6 5 6 6 7 7 6 6 7 6 4 4 3 3 3 3 4 3 2 1 1 2 3 3 4 6 6 11 12 12 12 12 12 11 10 10 9
6 6 6 6 7 7 6 6 8 7 7 8 8 7 8 6 6 5 4 4 4 4 4 4 3 1 1 3 3 4 4 4 5 9 12 12 12 12 11 11 10 9 9
7 7 6 7 7 7 7 7 8 8 8 8 8 8 8 7 7 6 6 5 4 4 3 3 3 2 1 3 4 3 4 4 5 7 10 11 12 12 11 10 10 9 8
7 8 8 8 8 8 8 8 8 8 8 8 8 8 9 9 9 8 7 6 5 4 4 3 3 3 2 3 4 4 4 4 4 5 6 7 10 11 10 10 10 9 9
8 8 8 8 8 7 8 8 8 8 8 8 8 8 9 11 12 9 7 6 6 5 4 4 3 3 3 4 4 4 5 5 4 4 6 5 6 6 6 8 8 9 8
8 8 8 8 9 8 9 11 9 8 8 8 8 8 8 10 12 13 13 11 10 8 7 5 4 5 5 4 3 4 5 6 4 4 5 4 4 5 4 4 6 8 8
8 8 8 8 9 10 12 13 13 8 8 8 8 8 7 7 9 8 10 12 12 13 11 7 6 7 5 5 5 7 6 6 4 7 6 5 4 4 4 4 8 8 8
7 8 8 9 9 10 11 11 12 8 8 8 8 9 8 8 8 8 8 8 8 9 10 8 7 7 6 5 6 5 5 4 4 5 5 5 4 4 4 4 7 8 8
8 8 8 8 9 10 11 11 9 5 6 8 8 8 8 8 9 10 8 8 8 7 8 10 9 8 8 9 7 5 6 6 5 4 3 4 5 4 3 3 4 8 8
8 8 8 8 8 9 10 10 8 4 5 6 6 6 10 10 10 10 9 9 8 7 6 6 6 7 7 7 9 7 6 6 5 4 5 5 6 5 4 3 3 4 6
Wind_Direction
221 228 236 240 247 248 248 249 240 238 236 236 234 231 230 230 229 222 224 229 229 229 229 224 217 212 208 204 201 200 200 198 195 193 194 194 190 188 187 187 185 183 181
219 218 236 242 245 247 246 244 244 243 242 239 241 238 236 233 234 229 222 229 232 230 228 226 220 215 212 208 205 203 203 202 198 195 196 197 195 192 192 192 191 188 186
210 219 231 245 254 263 265 257 252 247 249 246 246 245 241 234 232 231 225 220 226 230 229 227 223 216 213 211 208 206 204 204 201 198 198 198 197 195 195 195 194 192 191
201 214 237 257 262 267 261 257 253 256 256 252 251 250 244 236 238 237 230 223 220 225 229 228 225 218 213 212 211 210 207 205 203 202 200 200 200 198 197 198 197 195 194
240 220 247 261 267 263 257 264 252 243 261 260 256 251 243 239 240 243 238 229 222 221 221 228 226 218 214 213 213 212 209 207 206 205 204 203 203 201 200 200 200 198 197
287 241 252 264 257 260 265 259 263 249 250 263 267 263 251 243 237 238 240 235 226 224 222 223 221 221 217 213 212 214 214 212 209 207 207 206 205 204 202 202 202 201 201
284 244 256 273 255 249 265 268 271 271 261 246 260 274 265 245 237 236 235 233 230 226 221 217 213 212 215 214 212 213 215 216 212 210 209 208 207 205 204 204 204 204 203
272 252 234 252 248 247 270 267 248 267 268 232 232 270 289 291 254 237 229 229 231 224 223 219 212 209 211 207 210 211 213 218 216 213 210 208 208 206 206 207 206 206 205
292 281 267 254 247 225 242 251 237 236 256 262 221 224 248 266 305 280 240 232 228 224 223 217 214 212 210 207 208 211 212 214 217 216 212 209 207 206 205 207 208 208 208
296 284 270 258 248 237 242 250 234 225 228 252 254 232 238 246 266 300 291 255 241 230 223 219 218 214 211 207 210 208 209 211 214 217 214 210 207 206 205 208 210 210 209
299 291 275 264 253 243 244 247 243 229 220 223 227 236 245 250 240 253 282 288 272 243 228 221 216 214 210 208 209 212 209 210 212 214 212 208 207 206 205 208 212 213 212
301 297 283 267 260 251 246 242 238 234 229 227 226 223 222 233 238 244 264 277 277 264 240 228 220 216 210 206 210 207 206 206 207 209 208 207 206 205 206 208 212 214 214
292 291 292 278 267 256 253 242 232 235 229 227 227 226 228 235 237 240 258 271 276 281 264 240 225 217 214 205 208 204 204 201 203 203 203 202 202 202 204 206 210 213 215
275 283 285 279 271 265 263 249 239 239 230 229 236 231 231 238 235 233 238 261 282 280 264 254 237 221 215 205 206 199 202 197 197 197 197 196 195 194 195 199 204 207 210
279 285 286 282 277 270 263 254 245 248 238 233 235 233 232 240 241 238 239 234 247 269 277 262 239 227 218 207 200 201 202 194 189 188 189 188 189 190 190 193 196 199 202
284 289 287 284 281 274 264 252 251 251 246 244 238 236 236 236 241 238 236 241 238 244 264 273 252 248 226 215 193 195 197 183 182 181 181 181 180 182 182 184 188 190 193
290 287 284 283 280 277 269 257 253 251 245 248 246 239 242 236 231 234 230 234 236 235 256 276 256 244 199 182 176 176 173 172 172 172 171 170 169 169 170 171 174 175 178
287 284 282 280 278 276 267 256 258 256 247 248 247 243 246 241 232 229 224 229 232 231 240 266 264 234 197 171 161 161 159 152 153 160 159 159 157 157 159 162 163 163 165
287 285 280 277 277 276 272 262 254 254 248 245 244 241 243 238 237 231 224 222 226 232 228 253 260 226 202 162 148 145 140 128 132 143 143 144 145 147 150 153 155 156 158
286 284 281 277 275 274 273 269 261 254 250 247 244 240 240 234 234 231 227 221 219 223 224 239 248 225 205 165 154 155 150 141 132 132 125 125 130 131 136 142 147 150 154
287 282 283 281 278 274 267 264 261 259 251 249 245 240 239 238 235 228 225 217 212 214 214 223 231 218 202 176 172 164 159 143 126 135 131 130 130 128 128 133 137 142 148
289 287 283 281 280 275 273 271 270 265 256 249 249 248 246 248 244 235 229 219 208 206 209 211 218 215 210 193 171 168 158 158 160 158 143 134 134 130 129 134 137 140 144
289 289 285 281 279 276 273 274 274 267 257 250 247 246 247 243 234 234 231 226 220 215 205 203 212 213 204 196 183 180 181 178 163 158 146 137 134 128 122 121 133 138 140
288 287 285 284 281 280 278 276 275 268 258 252 247 243 240 243 238 229 228 228 225 223 217 213 214 213 206 195 189 185 173 155 122 146 149 136 139 131 121 121 134 137 138
294 290 286 285 282 284 283 280 277 268 259 258 251 245 238 239 233 224 221 220 223 228 225 218 215 210 196 188 177 165 165 169 160 160 151 131 134 124 122 126 129 135 136
289 292 290 284 279 281 284 281 275 260 259 261 257 249 242 238 232 222 219 214 214 218 210 206 213 212 200 190 181 182 180 179 161 160 158 139 142 142 139 132 139 143 134